Emporia, Virginia, United States (23847)
Lat: 36.69N, Lon: 77.54W
Wx Zone: VAZ087
Local Info
Past Weather Observations for Friday, February 27, 2015

NOTE: This archive is for the closest National Weather Service station to Emporia. Information may differ from the station used for current weather conditions.

Click here for Long-term Archive

Time Weather Temperature Dewpoint Humidity Pressure Winds Precip Visibility
23:55
Partly Cloudy
27°F / -3°C 25°F / -4°C 93% 30.63 in
(1037 mb)
Calm - 7SM
23:35
Clear
27°F / -3°C 25°F / -4°C 93% 30.63 in
(1037 mb)
Calm - 7SM
23:15
Clear
27°F / -3°C 27°F / -3°C 100% 30.63 in
(1037 mb)
Calm - 7SM
22:55
Clear
27°F / -3°C 25°F / -4°C 93% 30.63 in
(1037 mb)
Calm - 7SM
22:35
Clear
27°F / -3°C 27°F / -3°C 100% 30.63 in
(1037 mb)
Calm - 7SM
22:15
Clear
27°F / -3°C 27°F / -3°C 100% 30.6 in
(1036 mb)
Calm - 7SM
21:55
Clear
28°F / -2°C 27°F / -3°C 93% 30.6 in
(1036 mb)
Calm - 10SM
21:35
Clear
28°F / -2°C 27°F / -3°C 93% 30.6 in
(1036 mb)
Calm - 10SM
21:15
Clear
30°F / -1°C 27°F / -3°C 86% 30.57 in
(1035 mb)
Calm - 10SM
20:55
Clear
30°F / -1°C 27°F / -3°C 86% 30.57 in
(1035 mb)
Calm - 10SM
20:35
Clear
30°F / -1°C 27°F / -3°C 86% 30.57 in
(1035 mb)
Calm - 10SM
20:15
Clear
30°F / -1°C 27°F / -3°C 86% 30.54 in
(1034 mb)
Calm - 10SM
19:55
Clear
30°F / -1°C 27°F / -3°C 86% 30.54 in
(1034 mb)
Calm - 10SM
19:35
Clear
32°F / 0°C 27°F / -3°C 80% 30.54 in
(1034 mb)
Calm - 10SM
19:15
Clear
32°F / 0°C 27°F / -3°C 80% 30.54 in
(1034 mb)
Calm - 10SM
18:55
Clear
32°F / 0°C 27°F / -3°C 80% 30.51 in
(1033 mb)
Calm - 10SM
18:35
Clear
32°F / 0°C 27°F / -3°C 80% 30.51 in
(1033 mb)
NNE 3.5 mph
(NNE 6 kph)
- 10SM
18:15
Partly Cloudy
34°F / 1°C 27°F / -3°C 75% 30.51 in
(1033 mb)
N 3.5 mph
(N 6 kph)
- 10SM
17:55
Clear
34°F / 1°C 28°F / -2°C 81% 30.48 in
(1032 mb)
NNE 5.8 mph
(NNE 9 kph)
- 10SM
17:35
Clear
36°F / 2°C 28°F / -2°C 75% 30.45 in
(1031 mb)
NE 6.9 mph
(NE 11 kph)
- 10SM
17:15
Clear
37°F / 3°C 28°F / -2°C 70% 30.45 in
(1031 mb)
N 6.9 mph
(N 11 kph)
- 10SM
16:55
Clear
39°F / 4°C 28°F / -2°C 65% 30.45 in
(1031 mb)
N 4.6 mph
(N 7 kph)
- 10SM
16:35
Clear
41°F / 5°C 28°F / -2°C 61% 30.42 in
(1030 mb)
N 8.1 mph
(N 13 kph)
- 10SM
16:15
Clear
41°F / 5°C 27°F / -3°C 57% 30.42 in
(1030 mb)
N 5.8 mph
(N 9 kph)
- 10SM
15:55
Clear
41°F / 5°C 28°F / -2°C 61% 30.42 in
(1030 mb)
NNW 5.8 mph
(NNW 9 kph)
- 10SM
15:35
Partly Cloudy
43°F / 6°C 23°F / -5°C 46% 30.42 in
(1030 mb)
N 6.9 mph
(N 11 kph)
- 10SM
15:15
Partly Cloudy
43°F / 6°C 21°F / -6°C 42% 30.42 in
(1030 mb)
NW 8.1 mph
(NW 13 kph)
- 10SM
14:55
Clear
41°F / 5°C 19°F / -7°C 42% 30.42 in
(1030 mb)
W 5.8 mph
(W 9 kph)
- 10SM
14:35
Clear
43°F / 6°C 19°F / -7°C 39% 30.42 in
(1030 mb)
W 6.9 mph
(W 11 kph)
- 10SM
14:15
Clear
41°F / 5°C 19°F / -7°C 42% 30.42 in
(1030 mb)
SSW 6.9 mph
(SSW 11 kph)
- 10SM
13:55
Clear
41°F / 5°C 21°F / -6°C 45% 30.39 in
(1029 mb)
SSW 8.1 mph
(SSW 13 kph)
- 10SM
13:35
Clear
41°F / 5°C 21°F / -6°C 45% 30.39 in
(1029 mb)
SSW 9.2 mph
(SSW 15 kph)
- 10SM
13:15
Clear
41°F / 5°C 21°F / -6°C 45% 30.39 in
(1029 mb)
NW 9.2 mph
(NW 15 kph)
- 10SM
12:55
Clear
41°F / 5°C 21°F / -6°C 45% 30.39 in
(1029 mb)
W 8.1 mph
(W 13 kph)
- 10SM
12:35
Clear
41°F / 5°C 21°F / -6°C 45% 30.39 in
(1029 mb)
SW 9.2 mph
(SW 15 kph)
- 10SM
12:15
Clear
41°F / 5°C 23°F / -5°C 49% 30.39 in
(1029 mb)
SSW 6.9 mph
(SSW 11 kph)
- 10SM
11:55
Clear
41°F / 5°C 25°F / -4°C 53% 30.39 in
(1029 mb)
SW 5.8 mph
(SW 9 kph)
- 10SM
11:35
Clear
39°F / 4°C 25°F / -4°C 56% 30.39 in
(1029 mb)
SSW 3.5 mph
(SSW 6 kph)
- 10SM
11:15
Clear
37°F / 3°C 27°F / -3°C 65% 30.39 in
(1029 mb)
WNW 6.9 mph
(WNW 11 kph)
- 10SM
10:55
Clear
36°F / 2°C 28°F / -2°C 75% 30.39 in
(1029 mb)
NW 5.8 mph
(NW 9 kph)
- 10SM
10:35
Clear
36°F / 2°C 30°F / -1°C 81% 30.39 in
(1029 mb)
NW 8.1 mph
(NW 13 kph)
- 10SM
10:15
Clear
36°F / 2°C 32°F / 0°C 87% 30.39 in
(1029 mb)
WNW 4.6 mph
(WNW 7 kph)
- 10SM
09:55
Fair
34°F / 1°C 32°F / 0°C 93% 30.39 in
(1029 mb)
SSW 3.5 mph
(SSW 6 kph)
-
09:35
Clear
32°F / 0°C 32°F / 0°C 100% 30.36 in
(1028 mb)
Calm - 10SM
09:15
Clear
Fog And Mist
32°F / 0°C 32°F / 0°C 100% 30.36 in
(1028 mb)
Calm - 5SM
08:55
Obscured
Fog And Mist
28°F / -2°C 28°F / -2°C 100% 30.36 in
(1028 mb)
Calm - 1 1/4SM
08:35
Obscured
Fog
27°F / -3°C 27°F / -3°C 100% 30.36 in
(1028 mb)
Calm - 1/2SM
08:15
Obscured
Fog
23°F / -5°C 23°F / -5°C 100% 30.36 in
(1028 mb)
Calm - M1/4SM
07:55
Fair
18°F / -8°C 16°F / -9°C 93% 30.33 in
(1027 mb)
Calm -
07:35
Obscured
Fog
18°F / -8°C 16°F / -9°C 93% 30.33 in
(1027 mb)
Calm - M1/4SM
07:15
Obscured
Fog
18°F / -8°C 16°F / -9°C 93% 30.33 in
(1027 mb)
Calm - M1/4SM
06:55
Obscured
Fog
19°F / -7°C 19°F / -7°C 100% 30.33 in
(1027 mb)
Calm - 1/2SM
06:35
Obscured
Fog
19°F / -7°C 19°F / -7°C 100% 30.3 in
(1026 mb)
Calm - M1/4SM
06:15
Mostly Cloudy
Fog
19°F / -7°C 19°F / -7°C 100% 30.27 in
(1025 mb)
Calm - 1/4SM
05:55
Overcast
Fog
21°F / -6°C 21°F / -6°C 100% 30.27 in
(1025 mb)
Calm - 1/4SM
05:35
Overcast
Fog
21°F / -6°C 21°F / -6°C 100% 30.27 in
(1025 mb)
Calm - 1/4SM
05:15
Overcast
Fog
23°F / -5°C 23°F / -5°C 100% 30.27 in
(1025 mb)
Calm - 1/4SM
04:55
Mostly Cloudy
Fog And Mist
25°F / -4°C 25°F / -4°C 100% 30.24 in
(1024 mb)
Calm - 2SM
04:35
Overcast
Fog And Mist
27°F / -3°C 27°F / -3°C 100% 30.24 in
(1024 mb)
Calm - 1 1/2SM
04:15
Overcast
Fog And Mist
27°F / -3°C 27°F / -3°C 100% 30.24 in
(1024 mb)
Calm - 1 1/2SM
03:55
Mostly Cloudy
Fog And Mist
28°F / -2°C 28°F / -2°C 100% 30.24 in
(1024 mb)
Calm - 4SM
03:35
Partly Cloudy
Fog And Mist
28°F / -2°C 28°F / -2°C 100% 30.24 in
(1024 mb)
W 3.5 mph
(W 6 kph)
- 4SM
03:15
Fair
27°F / -3°C 27°F / -3°C 100% 30.21 in
(1023 mb)
Calm - 3SM
02:55
Fair
N/A N/A N/A 30.21 in
(1023 mb)
Calm -
02:35
Fair
N/A N/A N/A N/A Calm -
02:15
Fair
N/A N/A N/A N/A Calm -
01:55
Fair
N/A N/A N/A N/A Calm -
01:35
Fair
N/A N/A N/A N/A Calm -
01:15
Fair
N/A N/A N/A N/A Calm -
00:55
Fair
25°F / -4°C 25°F / -4°C 100% N/A Calm -
00:35
Fair
25°F / -4°C 25°F / -4°C 100% N/A Calm -
00:15
Obscured
Fog
23°F / -5°C 23°F / -5°C 100% 30.18 in
(1022 mb)
Calm - 1/4SM
Time Weather Temperature Dewpoint Humidity Pressure Winds Precip Visibility


Weather for websites

WeatherForYou.com, LLC is not responsible for any damages or problems caused by this service. Current weather conditions are obtained from the closest station including government and personal stations which may have varying degrees of accuracy. Weather forecasts are derived from the NOAA NDFD. Like all things, this site belongs to Jesus Christ... He just trusts me to maintain it. If you have any questions or comments email webmaster@weatherforyou.com

Copyright © 2015, WeatherForYou.com LLC. All rights reserved.